Time,TemperatureF,DewpointF,PressureIn,WindDirection,WindDirectionDegrees,WindSpeedMPH,WindSpeedGustMPH,Humidity,HourlyPrecipIn,Conditions,Clouds,dailyrainin,SoftwareType,DateUTC
2013-02-09 00:03:00,31.9,25.8,30.37,ENE,68,0.0,1.0,78,0.00,,OVC018,0.00,VWS V14.01,2013-02-09 06:03:00,
2013-02-09 00:08:00,32.0,25.9,30.38,East,86,0.0,5.0,78,0.00,,OVC018,0.00,VWS V14.01,2013-02-09 06:08:00,
2013-02-09 00:13:00,32.0,26.2,30.37,ENE,74,0.0,2.0,79,0.00,,OVC018,0.00,VWS V14.01,2013-02-09 06:13:00,
2013-02-09 00:18:00,32.0,26.2,30.38,East,80,2.0,5.0,79,0.00,,OVC018,0.00,VWS V14.01,2013-02-09 06:18:00,
2013-02-09 00:23:00,32.0,26.2,30.37,ESE,115,0.0,4.0,79,0.00,,OVC018,0.00,VWS V14.01,2013-02-09 06:23:00,
2013-02-09 00:28:00,32.0,26.2,30.37,SE,126,1.0,5.0,79,0.00,,OVC018,0.00,VWS V14.01,2013-02-09 06:28:00,
2013-02-09 00:33:00,32.0,26.2,30.37,ESE,121,2.0,5.0,79,0.00,,OVC018,0.00,VWS V14.01,2013-02-09 06:33:00,
2013-02-09 00:38:00,31.9,25.8,30.38,ESE,105,4.0,6.0,78,0.00,,OVC018,0.00,VWS V14.01,2013-02-09 06:38:00,
2013-02-09 00:43:00,31.9,25.8,30.38,SE,134,0.0,7.0,78,0.00,,OVC018,0.00,VWS V14.01,2013-02-09 06:43:00,
2013-02-09 00:48:00,31.8,25.7,30.38,ENE,59,0.0,7.0,78,0.00,,OVC018,0.00,VWS V14.01,2013-02-09 06:48:00,
2013-02-09 00:53:00,31.9,25.8,30.38,ENE,59,0.0,0.0,78,0.00,,OVC018,0.00,VWS V14.01,2013-02-09 06:53:00,
2013-02-09 00:58:00,31.8,25.7,30.37,East,81,0.0,7.0,78,0.00,,OVC018,0.00,VWS V14.01,2013-02-09 06:58:00,
2013-02-09 01:03:00,31.9,25.8,30.37,SE,128,0.0,5.0,78,0.00,,OVC018,0.00,VWS V14.01,2013-02-09 07:03:00,
2013-02-09 01:08:00,31.8,25.7,30.37,SE,124,6.0,8.0,78,0.00,,OVC018,0.00,VWS V14.01,2013-02-09 07:08:00,
2013-02-09 01:13:00,31.8,25.7,30.37,ESE,122,4.0,6.0,78,0.00,,OVC018,0.00,VWS V14.01,2013-02-09 07:13:00,
2013-02-09 01:18:00,31.8,25.7,30.37,ESE,118,6.0,7.0,78,0.00,,OVC018,0.00,VWS V14.01,2013-02-09 07:18:00,
2013-02-09 01:23:00,31.8,25.7,30.36,ESE,121,1.0,5.0,78,0.00,,OVC018,0.00,VWS V14.01,2013-02-09 07:23:00,
2013-02-09 01:28:00,31.8,25.7,30.36,East,98,2.0,7.0,78,0.00,,OVC018,0.00,VWS V14.01,2013-02-09 07:28:00,
2013-02-09 01:33:00,31.8,25.7,30.36,ESE,110,5.0,11.0,78,0.00,,OVC020,0.00,VWS V14.01,2013-02-09 07:33:00,
2013-02-09 01:38:00,31.7,25.6,30.36,ESE,113,2.0,11.0,78,0.00,,OVC020,0.00,VWS V14.01,2013-02-09 07:38:00,
2013-02-09 01:43:00,31.7,25.6,30.36,SE,135,1.0,9.0,78,0.00,,OVC020,0.00,VWS V14.01,2013-02-09 07:43:00,
2013-02-09 01:48:00,31.8,25.7,30.37,SE,134,0.0,9.0,78,0.00,,OVC020,0.00,VWS V14.01,2013-02-09 07:48:00,
2013-02-09 01:53:00,31.8,25.7,30.37,ESE,115,0.0,5.0,78,0.00,,OVC020,0.00,VWS V14.01,2013-02-09 07:53:00,
2013-02-09 01:58:00,31.8,25.7,30.37,East,101,0.0,5.0,78,0.00,,OVC020,0.00,VWS V14.01,2013-02-09 07:58:00,
2013-02-09 02:03:00,31.8,25.7,30.37,ESE,119,5.0,5.0,78,0.00,,OVC020,0.00,VWS V14.01,2013-02-09 08:03:00,
2013-02-09 02:08:00,31.8,25.7,30.38,ESE,105,2.0,5.0,78,0.00,,OVC020,0.00,VWS V14.01,2013-02-09 08:08:00,
2013-02-09 02:14:00,31.8,25.7,30.38,East,101,4.0,5.0,78,0.00,,OVC020,0.00,VWS V14.01,2013-02-09 08:14:00,
2013-02-09 02:19:00,31.8,25.7,30.38,ENE,73,3.0,7.0,78,0.00,,OVC020,0.00,VWS V14.01,2013-02-09 08:19:00,
2013-02-09 02:24:00,31.7,25.6,30.37,NE,41,0.0,5.0,78,0.00,,OVC020,0.00,VWS V14.01,2013-02-09 08:24:00,
2013-02-09 02:29:00,31.7,25.6,30.37,ENE,64,5.0,5.0,78,0.00,,OVC020,0.00,VWS V14.01,2013-02-09 08:29:00,
2013-02-09 02:34:00,31.7,25.6,30.37,ESE,103,0.0,4.0,78,0.00,,OVC020,0.00,VWS V14.01,2013-02-09 08:34:00,
2013-02-09 02:39:00,31.7,25.6,30.37,ESE,105,1.0,4.0,78,0.00,,OVC020,0.00,VWS V14.01,2013-02-09 08:39:00,
2013-02-09 02:44:00,31.7,25.9,30.36,ESE,105,0.0,1.0,79,0.00,,OVC020,0.00,VWS V14.01,2013-02-09 08:44:00,
2013-02-09 02:49:00,31.7,25.9,30.36,ESE,117,0.0,4.0,79,0.00,,OVC020,0.00,VWS V14.01,2013-02-09 08:49:00,
2013-02-09 02:54:00,31.7,25.9,30.37,ESE,117,0.0,1.0,79,0.00,,OVC020,0.00,VWS V14.01,2013-02-09 08:54:00,
2013-02-09 02:59:00,31.7,25.9,30.37,SE,125,2.0,5.0,79,0.00,,OVC020,0.00,VWS V14.01,2013-02-09 08:59:00,
2013-02-09 03:04:00,31.7,25.9,30.37,ESE,106,0.0,1.0,79,0.00,,OVC020,0.00,VWS V14.01,2013-02-09 09:04:00,
2013-02-09 03:09:00,31.7,25.9,30.37,SE,131,0.0,6.0,79,0.00,,OVC020,0.00,VWS V14.01,2013-02-09 09:09:00,
2013-02-09 03:14:00,31.7,25.9,30.37,SE,126,1.0,5.0,79,0.00,,OVC020,0.00,VWS V14.01,2013-02-09 09:14:00,
2013-02-09 03:19:00,31.6,25.9,30.38,East,91,2.0,5.0,79,0.00,,OVC020,0.00,VWS V14.01,2013-02-09 09:19:00,
2013-02-09 03:24:00,31.7,25.9,30.38,ESE,117,0.0,4.0,79,0.00,,OVC020,0.00,VWS V14.01,2013-02-09 09:24:00,
2013-02-09 03:29:00,31.6,25.9,30.38,SSE,153,0.0,5.0,79,0.00,,OVC020,0.00,VWS V14.01,2013-02-09 09:29:00,
2013-02-09 03:34:00,31.7,25.9,30.38,SSE,153,0.0,0.0,79,0.00,,OVC018,0.00,VWS V14.01,2013-02-09 09:34:00,
2013-02-09 03:39:00,31.6,25.9,30.38,SE,128,1.0,4.0,79,0.00,,OVC018,0.00,VWS V14.01,2013-02-09 09:39:00,
2013-02-09 03:44:00,31.6,25.9,30.37,ESE,123,2.0,2.0,79,0.00,,OVC018,0.00,VWS V14.01,2013-02-09 09:44:00,
2013-02-09 03:49:00,31.6,25.9,30.38,ESE,107,1.0,6.0,79,0.00,,OVC018,0.00,VWS V14.01,2013-02-09 09:49:00,
2013-02-09 03:54:00,31.6,25.9,30.38,East,98,0.0,0.0,79,0.00,,OVC018,0.00,VWS V14.01,2013-02-09 09:54:00,
2013-02-09 03:59:00,31.6,25.9,30.38,ESE,117,0.0,8.0,79,0.00,,OVC018,0.00,VWS V14.01,2013-02-09 09:59:00,
2013-02-09 04:04:00,31.6,25.9,30.38,ESE,117,1.0,4.0,79,0.00,,OVC018,0.00,VWS V14.01,2013-02-09 10:04:00,
2013-02-09 04:09:00,31.6,25.9,30.38,SE,127,4.0,8.0,79,0.00,,OVC018,0.00,VWS V14.01,2013-02-09 10:09:00,
2013-02-09 04:14:00,31.6,25.9,30.38,SE,144,1.0,6.0,79,0.00,,OVC018,0.00,VWS V14.01,2013-02-09 10:14:00,
2013-02-09 04:19:00,31.6,25.9,30.39,SE,144,0.0,6.0,79,0.00,,OVC018,0.00,VWS V14.01,2013-02-09 10:19:00,
2013-02-09 04:24:00,31.6,25.9,30.38,ESE,123,0.0,5.0,79,0.00,,OVC018,0.00,VWS V14.01,2013-02-09 10:24:00,
2013-02-09 04:29:00,31.7,25.9,30.39,ESE,123,0.0,5.0,79,0.00,,OVC018,0.00,VWS V14.01,2013-02-09 10:29:00,
2013-02-09 04:34:00,31.7,26.2,30.39,SE,131,0.0,0.0,80,0.00,,OVC018,0.00,VWS V14.01,2013-02-09 10:34:00,
2013-02-09 04:39:00,31.7,25.9,30.39,ESE,106,0.0,5.0,79,0.00,,OVC018,0.00,VWS V14.01,2013-02-09 10:39:00,
2013-02-09 04:44:00,31.7,25.9,30.39,ESE,111,0.0,2.0,79,0.00,,OVC018,0.00,VWS V14.01,2013-02-09 10:44:00,
2013-02-09 04:49:00,31.7,25.9,30.39,ESE,115,2.0,5.0,79,0.00,,OVC018,0.00,VWS V14.01,2013-02-09 10:49:00,
2013-02-09 04:54:00,31.7,26.2,30.38,ESE,116,0.0,1.0,80,0.00,,OVC018,0.00,VWS V14.01,2013-02-09 10:54:00,
2013-02-09 04:59:00,31.7,25.9,30.38,SSE,150,5.0,8.0,79,0.00,,OVC018,0.00,VWS V14.01,2013-02-09 10:59:00,
2013-02-09 05:04:00,31.7,25.9,30.39,SE,135,0.0,5.0,79,0.00,,OVC018,0.00,VWS V14.01,2013-02-09 11:04:00,
2013-02-09 05:09:00,31.7,25.9,30.38,SE,128,5.0,6.0,79,0.00,,OVC018,0.00,VWS V14.01,2013-02-09 11:09:00,
2013-02-09 05:14:00,31.6,25.9,30.38,SE,144,0.0,5.0,79,0.00,,OVC018,0.00,VWS V14.01,2013-02-09 11:14:00,
2013-02-09 05:19:00,31.7,25.9,30.38,SE,144,2.0,5.0,79,0.00,,OVC018,0.00,VWS V14.01,2013-02-09 11:19:00,
2013-02-09 05:24:00,31.7,25.9,30.38,South,175,0.0,4.0,79,0.00,,OVC018,0.00,VWS V14.01,2013-02-09 11:24:00,
2013-02-09 05:29:00,31.7,26.2,30.38,SE,129,0.0,4.0,80,0.00,,OVC018,0.00,VWS V14.01,2013-02-09 11:29:00,
2013-02-09 05:34:00,31.7,26.2,30.37,SE,129,4.0,6.0,80,0.00,,OVC018,0.00,VWS V14.01,2013-02-09 11:34:00,
2013-02-09 05:39:00,31.7,26.2,30.37,SE,130,2.0,8.0,80,0.00,,OVC018,0.00,VWS V14.01,2013-02-09 11:39:00,
2013-02-09 05:44:00,31.7,26.2,30.37,ESE,118,4.0,6.0,80,0.00,,OVC018,0.00,VWS V14.01,2013-02-09 11:44:00,
2013-02-09 05:49:00,31.7,26.2,30.37,SSE,167,6.0,7.0,80,0.00,,OVC018,0.00,VWS V14.01,2013-02-09 11:49:00,
2013-02-09 05:54:00,31.6,26.1,30.37,SSE,150,0.0,5.0,80,0.00,,OVC018,0.00,VWS V14.01,2013-02-09 11:54:00,
2013-02-09 05:59:00,31.6,26.1,30.37,ESE,110,2.0,5.0,80,0.00,,OVC018,0.00,VWS V14.01,2013-02-09 11:59:00,
2013-02-09 06:04:00,31.6,26.1,30.37,SE,135,2.0,8.0,80,0.00,,OVC018,0.00,VWS V14.01,2013-02-09 12:04:00,
2013-02-09 06:09:00,31.6,26.1,30.36,SE,129,6.0,8.0,80,0.00,,OVC018,0.00,VWS V14.01,2013-02-09 12:09:00,
2013-02-09 06:14:00,31.5,26.0,30.36,SE,126,0.0,2.0,80,0.00,,OVC018,0.00,VWS V14.01,2013-02-09 12:14:00,
2013-02-09 06:19:00,31.5,26.0,30.36,ESE,114,0.0,5.0,80,0.00,,OVC018,0.00,VWS V14.01,2013-02-09 12:19:00,
2013-02-09 06:24:00,31.4,26.0,30.36,SE,130,6.0,8.0,80,0.00,,OVC018,0.00,VWS V14.01,2013-02-09 12:24:00,
2013-02-09 06:29:00,31.3,25.9,30.36,ESE,116,4.0,11.0,80,0.00,,OVC018,0.00,VWS V14.01,2013-02-09 12:29:00,
2013-02-09 06:34:00,31.3,25.9,30.36,SE,136,1.0,11.0,80,0.00,,OVC018,0.00,VWS V14.01,2013-02-09 12:34:00,
2013-02-09 06:39:00,31.3,25.9,30.36,SE,132,5.0,12.0,80,0.00,,OVC018,0.00,VWS V14.01,2013-02-09 12:39:00,
2013-02-09 06:44:00,31.4,26.0,30.35,ESE,115,2.0,9.0,80,0.00,,OVC018,0.00,VWS V14.01,2013-02-09 12:44:00,
2013-02-09 06:49:00,31.4,26.0,30.36,ESE,115,6.0,9.0,80,0.00,,OVC018,0.00,VWS V14.01,2013-02-09 12:49:00,
2013-02-09 06:54:00,31.5,26.0,30.35,SE,132,7.0,8.0,80,0.00,,OVC018,0.00,VWS V14.01,2013-02-09 12:54:00,
2013-02-09 06:59:00,31.5,26.0,30.35,ESE,117,7.0,10.0,80,0.00,,OVC018,0.00,VWS V14.01,2013-02-09 12:59:00,
2013-02-09 07:04:00,31.5,26.0,30.36,East,101,6.0,7.0,80,0.00,,OVC018,0.00,VWS V14.01,2013-02-09 13:04:00,
2013-02-09 07:09:00,31.6,26.1,30.37,East,89,0.0,8.0,80,0.00,,OVC018,0.00,VWS V14.01,2013-02-09 13:09:00,
2013-02-09 07:14:00,31.5,26.0,30.37,East,95,7.0,10.0,80,0.00,,OVC018,0.00,VWS V14.01,2013-02-09 13:14:00,
2013-02-09 07:19:00,31.5,26.0,30.37,SE,133,7.0,12.0,80,0.00,,OVC018,0.00,VWS V14.01,2013-02-09 13:19:00,
2013-02-09 07:24:00,31.5,26.0,30.37,SE,135,10.0,11.0,80,0.00,,OVC018,0.00,VWS V14.01,2013-02-09 13:24:00,
2013-02-09 07:29:00,31.5,26.0,30.38,ESE,104,8.0,15.0,80,0.00,,OVC018,0.00,VWS V14.01,2013-02-09 13:29:00,
2013-02-09 07:34:00,31.5,26.0,30.37,East,96,6.0,11.0,80,0.00,,OVC016,0.00,VWS V14.01,2013-02-09 13:34:00,
2013-02-09 07:39:00,31.6,26.1,30.37,SSE,154,4.0,11.0,80,0.00,,OVC016,0.00,VWS V14.01,2013-02-09 13:39:00,
2013-02-09 07:44:00,31.6,26.5,30.36,SSE,152,4.0,7.0,81,0.00,,OVC016,0.00,VWS V14.01,2013-02-09 13:44:00,
2013-02-09 07:49:00,31.7,26.5,30.37,SSE,150,4.0,10.0,81,0.00,,OVC016,0.00,VWS V14.01,2013-02-09 13:49:00,
2013-02-09 07:54:00,31.8,26.6,30.36,ESE,114,6.0,12.0,81,0.00,,OVC016,0.00,VWS V14.01,2013-02-09 13:54:00,
2013-02-09 07:59:00,31.8,26.6,30.36,SE,146,5.0,15.0,81,0.00,,OVC016,0.00,VWS V14.01,2013-02-09 13:59:00,
2013-02-09 08:04:00,31.7,26.2,30.36,SE,134,8.0,14.0,80,0.00,,OVC016,0.00,VWS V14.01,2013-02-09 14:04:00,
2013-02-09 08:09:00,31.8,26.6,30.36,SE,142,4.0,14.0,81,0.00,,OVC016,0.00,VWS V14.01,2013-02-09 14:09:00,
2013-02-09 08:14:00,31.9,26.7,30.37,ESE,108,5.0,15.0,81,0.00,,OVC016,0.00,VWS V14.01,2013-02-09 14:14:00,
2013-02-09 08:19:00,32.0,26.5,30.37,SSE,156,5.0,15.0,80,0.00,,OVC016,0.00,VWS V14.01,2013-02-09 14:19:00,
2013-02-09 08:24:00,32.3,26.8,30.37,South,188,2.0,8.0,80,0.00,,OVC016,0.00,VWS V14.01,2013-02-09 14:24:00,
2013-02-09 08:29:00,32.4,26.9,30.37,SE,146,2.0,9.0,80,0.00,,OVC016,0.00,VWS V14.01,2013-02-09 14:29:00,
2013-02-09 08:34:00,32.6,27.1,30.37,SE,135,7.0,9.0,80,0.00,,OVC016,0.00,VWS V14.01,2013-02-09 14:34:00,
2013-02-09 08:39:00,32.6,26.8,30.37,SSE,150,4.0,13.0,79,0.00,,OVC016,0.00,VWS V14.01,2013-02-09 14:39:00,
2013-02-09 08:44:00,32.6,26.8,30.37,SE,136,5.0,18.0,79,0.00,,OVC016,0.00,VWS V14.01,2013-02-09 14:44:00,
2013-02-09 08:49:00,32.7,26.9,30.37,SSE,164,4.0,18.0,79,0.00,,OVC016,0.00,VWS V14.01,2013-02-09 14:49:00,
2013-02-09 08:54:00,32.9,27.1,30.37,SE,137,8.0,11.0,79,0.00,,OVC018,0.00,VWS V14.01,2013-02-09 14:54:00,
2013-02-09 08:59:00,32.9,27.1,30.37,SSE,157,2.0,14.0,79,0.00,,OVC018,0.00,VWS V14.01,2013-02-09 14:59:00,
2013-02-09 09:04:00,33.1,27.3,30.37,SSE,155,6.0,9.0,79,0.00,,OVC018,0.00,VWS V14.01,2013-02-09 15:04:00,
2013-02-09 09:09:00,33.2,27.4,30.37,SSE,150,6.0,9.0,79,0.00,,OVC018,0.00,VWS V14.01,2013-02-09 15:09:00,
2013-02-09 09:14:00,33.3,27.2,30.38,SE,130,5.0,8.0,78,0.00,,OVC018,0.00,VWS V14.01,2013-02-09 15:14:00,
2013-02-09 09:19:00,33.6,27.8,30.38,SSE,168,0.0,8.0,79,0.00,,OVC018,0.00,VWS V14.01,2013-02-09 15:19:00,
2013-02-09 09:24:00,33.8,27.7,30.38,South,178,2.0,8.0,78,0.00,,OVC018,0.00,VWS V14.01,2013-02-09 15:24:00,
2013-02-09 09:29:00,33.8,27.7,30.38,SSE,150,9.0,9.0,78,0.00,,OVC018,0.00,VWS V14.01,2013-02-09 15:29:00,
2013-02-09 09:34:00,33.7,27.6,30.37,SSE,158,5.0,9.0,78,0.00,,OVC018,0.00,VWS V14.01,2013-02-09 15:34:00,
2013-02-09 09:39:00,33.7,27.6,30.37,SSE,154,1.0,10.0,78,0.00,,OVC018,0.00,VWS V14.01,2013-02-09 15:39:00,
2013-02-09 09:44:00,33.8,27.7,30.36,SE,145,4.0,10.0,78,0.00,,OVC018,0.00,VWS V14.01,2013-02-09 15:44:00,
2013-02-09 09:49:00,33.8,27.7,30.36,South,184,6.0,10.0,78,0.00,,OVC018,0.00,VWS V14.01,2013-02-09 15:49:00,
2013-02-09 09:54:00,34.0,27.9,30.36,ESE,103,9.0,9.0,78,0.00,,OVC018,0.00,VWS V14.01,2013-02-09 15:54:00,
2013-02-09 09:59:00,33.8,27.4,30.36,ESE,123,0.0,12.0,77,0.00,,OVC018,0.00,VWS V14.01,2013-02-09 15:59:00,
2013-02-09 10:04:00,34.1,28.0,30.36,East,86,8.0,11.0,78,0.00,,OVC018,0.00,VWS V14.01,2013-02-09 16:04:00,
2013-02-09 10:09:00,34.1,27.7,30.36,ESE,107,6.0,14.0,77,0.00,,OVC018,0.00,VWS V14.01,2013-02-09 16:09:00,
2013-02-09 10:14:00,34.3,27.9,30.36,East,92,5.0,9.0,77,0.00,,OVC018,0.00,VWS V14.01,2013-02-09 16:14:00,
2013-02-09 10:19:00,34.3,27.9,30.36,ESE,122,2.0,14.0,77,0.00,,OVC018,0.00,VWS V14.01,2013-02-09 16:19:00,
2013-02-09 10:24:00,34.5,28.0,30.36,SE,128,9.0,11.0,77,0.00,,OVC018,0.00,VWS V14.01,2013-02-09 16:24:00,
2013-02-09 10:29:00,34.7,28.2,30.37,SSE,148,2.0,12.0,77,0.00,,OVC018,0.00,VWS V14.01,2013-02-09 16:29:00,
2013-02-09 10:34:00,35.8,29.0,30.37,SSE,155,1.0,9.0,76,0.00,,OVC018,0.00,VWS V14.01,2013-02-09 16:34:00,
2013-02-09 10:39:00,35.5,28.4,30.36,SSE,154,5.0,9.0,75,0.00,,OVC018,0.00,VWS V14.01,2013-02-09 16:39:00,
2013-02-09 10:44:00,35.5,28.7,30.36,SE,136,6.0,10.0,76,0.00,,OVC018,0.00,VWS V14.01,2013-02-09 16:44:00,
2013-02-09 10:49:00,35.9,29.1,30.36,SSE,159,4.0,10.0,76,0.00,,OVC018,0.00,VWS V14.01,2013-02-09 16:49:00,
2013-02-09 10:54:00,36.6,29.1,30.36,SE,140,4.0,11.0,74,0.00,,OVC018,0.00,VWS V14.01,2013-02-09 16:54:00,
2013-02-09 10:59:00,36.1,28.6,30.35,ENE,67,4.0,11.0,74,0.00,,OVC018,0.00,VWS V14.01,2013-02-09 16:59:00,
2013-02-09 11:05:00,36.1,29.0,30.35,South,178,7.0,8.0,75,0.00,,OVC018,0.00,VWS V14.01,2013-02-09 17:05:00,
2013-02-09 11:10:00,36.7,28.9,30.34,South,171,4.0,12.0,73,0.00,,OVC018,0.00,VWS V14.01,2013-02-09 17:10:00,
2013-02-09 11:15:00,36.7,29.2,30.34,SSE,153,2.0,12.0,74,0.00,,OVC018,0.00,VWS V14.01,2013-02-09 17:15:00,
2013-02-09 11:20:00,37.5,30.0,30.34,South,182,5.0,12.0,74,0.00,,OVC018,0.00,VWS V14.01,2013-02-09 17:20:00,
2013-02-09 11:25:00,37.3,29.5,30.33,South,191,5.0,10.0,73,0.00,,OVC018,0.00,VWS V14.01,2013-02-09 17:25:00,
2013-02-09 11:30:00,37.7,29.8,30.33,ESE,118,6.0,11.0,73,0.00,,OVC018,0.00,VWS V14.01,2013-02-09 17:30:00,
2013-02-09 11:35:00,38.3,30.4,30.33,South,174,4.0,9.0,73,0.00,,SCT021,0.00,VWS V14.01,2013-02-09 17:35:00,
2013-02-09 11:40:00,38.0,29.8,30.33,SSE,148,1.0,10.0,72,0.00,,SCT021,0.00,VWS V14.01,2013-02-09 17:40:00,
2013-02-09 11:45:00,38.4,29.8,30.32,South,173,5.0,10.0,71,0.00,,SCT021,0.00,VWS V14.01,2013-02-09 17:45:00,
2013-02-09 11:50:00,37.8,28.9,30.32,South,190,0.0,12.0,70,0.00,,SCT021,0.00,VWS V14.01,2013-02-09 17:50:00,
2013-02-09 11:55:00,38.0,29.8,30.32,SE,145,7.0,12.0,72,0.00,,SCT021,0.00,VWS V14.01,2013-02-09 17:55:00,
2013-02-09 12:00:00,38.7,30.8,30.31,South,180,1.0,12.0,73,0.00,,SCT021,0.00,VWS V14.01,2013-02-09 18:00:00,
2013-02-09 12:05:00,39.0,30.4,30.31,South,182,5.0,9.0,71,0.00,,SCT021,0.00,VWS V14.01,2013-02-09 18:05:00,
2013-02-09 12:10:00,38.8,29.9,30.31,ESE,123,4.0,11.0,70,0.00,,SCT021,0.00,VWS V14.01,2013-02-09 18:10:00,
2013-02-09 12:15:00,38.6,29.7,30.31,South,184,6.0,10.0,70,0.00,,SCT021,0.00,VWS V14.01,2013-02-09 18:15:00,
2013-02-09 12:20:00,38.9,30.3,30.31,SE,135,5.0,10.0,71,0.00,,SCT021,0.00,VWS V14.01,2013-02-09 18:20:00,
2013-02-09 12:25:00,39.6,30.3,30.32,South,190,4.0,8.0,69,0.00,,SCT021,0.00,VWS V14.01,2013-02-09 18:25:00,
2013-02-09 12:30:00,39.3,29.6,30.31,South,186,7.0,8.0,68,0.00,,SCT021,0.00,VWS V14.01,2013-02-09 18:30:00,
2013-02-09 12:35:00,39.1,29.8,30.31,SSE,155,2.0,11.0,69,0.00,,,0.00,VWS V14.01,2013-02-09 18:35:00,
2013-02-09 12:40:00,39.4,30.1,30.31,South,183,7.0,11.0,69,0.00,,,0.00,VWS V14.01,2013-02-09 18:40:00,
2013-02-09 12:45:00,40.1,30.4,30.30,South,173,5.0,5.0,68,0.00,,,0.00,VWS V14.01,2013-02-09 18:45:00,
2013-02-09 12:50:00,40.6,30.5,30.30,South,183,7.0,9.0,67,0.00,,,0.00,VWS V14.01,2013-02-09 18:50:00,
2013-02-09 12:55:00,40.7,30.6,30.29,SE,146,4.0,10.0,67,0.00,,,0.00,VWS V14.01,2013-02-09 18:55:00,
2013-02-09 13:00:00,40.5,30.4,30.29,SSW,192,3.0,10.0,67,0.00,,,0.00,VWS V14.01,2013-02-09 19:00:00,
2013-02-09 13:05:00,40.5,30.8,30.29,SE,138,4.0,7.0,68,0.00,,,0.00,VWS V14.01,2013-02-09 19:05:00,
2013-02-09 13:10:00,40.8,31.1,30.28,South,181,3.0,7.0,68,0.00,,,0.00,VWS V14.01,2013-02-09 19:10:00,
2013-02-09 13:15:00,41.0,30.9,30.28,SE,132,1.0,6.0,67,0.00,,,0.00,VWS V14.01,2013-02-09 19:15:00,
2013-02-09 13:20:00,41.6,31.1,30.28,East,92,1.0,6.0,66,0.00,,,0.00,VWS V14.01,2013-02-09 19:20:00,
2013-02-09 13:25:00,41.3,31.2,30.28,SSE,161,4.0,4.0,67,0.00,,,0.00,VWS V14.01,2013-02-09 19:25:00,
2013-02-09 13:30:00,41.5,31.4,30.28,SE,146,5.0,5.0,67,0.00,,,0.00,VWS V14.01,2013-02-09 19:30:00,
2013-02-09 13:35:00,42.4,31.1,30.27,SE,133,2.0,6.0,64,0.00,,,0.00,VWS V14.01,2013-02-09 19:35:00,
2013-02-09 13:40:00,41.9,30.6,30.27,SE,140,4.0,11.0,64,0.00,,,0.00,VWS V14.01,2013-02-09 19:40:00,
2013-02-09 13:45:00,41.7,31.2,30.25,SSE,165,4.0,6.0,66,0.00,,,0.00,VWS V14.01,2013-02-09 19:45:00,
2013-02-09 13:50:00,42.7,31.8,30.25,SE,139,5.0,7.0,65,0.00,,,0.00,VWS V14.01,2013-02-09 19:50:00,
2013-02-09 13:55:00,42.8,31.9,30.24,ESE,117,1.0,8.0,65,0.00,,,0.00,VWS V14.01,2013-02-09 19:55:00,
2013-02-09 14:00:00,43.6,31.9,30.25,SE,133,5.0,8.0,63,0.00,,,0.00,VWS V14.01,2013-02-09 20:00:00,
2013-02-09 14:05:00,43.5,32.5,30.24,SE,144,0.0,12.0,65,0.00,,,0.00,VWS V14.01,2013-02-09 20:05:00,
2013-02-09 14:10:00,44.4,32.2,30.24,SE,128,5.0,12.0,62,0.00,,,0.00,VWS V14.01,2013-02-09 20:10:00,
2013-02-09 14:15:00,44.2,33.2,30.24,SSE,161,6.0,8.0,65,0.00,,,0.00,VWS V14.01,2013-02-09 20:15:00,
2013-02-09 14:20:00,44.1,31.9,30.23,East,101,5.0,9.0,62,0.00,,,0.00,VWS V14.01,2013-02-09 20:20:00,
2013-02-09 14:25:00,43.8,31.6,30.23,ESE,117,6.0,11.0,62,0.00,,,0.00,VWS V14.01,2013-02-09 20:25:00,
2013-02-09 14:30:00,43.8,32.4,30.22,ESE,119,0.0,11.0,64,0.00,,,0.00,VWS V14.01,2013-02-09 20:30:00,
2013-02-09 14:35:00,44.4,32.2,30.22,SE,134,9.0,12.0,62,0.00,,,0.00,VWS V14.01,2013-02-09 20:35:00,
2013-02-09 14:40:00,44.5,32.3,30.22,SE,135,7.0,13.0,62,0.00,,,0.00,VWS V14.01,2013-02-09 20:40:00,
2013-02-09 14:45:00,45.2,33.0,30.22,SE,143,7.0,8.0,62,0.00,,,0.00,VWS V14.01,2013-02-09 20:45:00,
2013-02-09 14:50:00,44.9,31.5,30.22,SE,133,4.0,14.0,59,0.00,,,0.00,VWS V14.01,2013-02-09 20:50:00,
2013-02-09 14:55:00,45.3,31.8,30.22,SSE,153,6.0,11.0,59,0.00,,,0.00,VWS V14.01,2013-02-09 20:55:00,
2013-02-09 15:00:00,46.0,33.3,30.22,South,170,5.0,11.0,61,0.00,,,0.00,VWS V14.01,2013-02-09 21:00:00,
2013-02-09 15:05:00,45.5,32.8,30.21,SE,130,5.0,11.0,61,0.00,,,0.00,VWS V14.01,2013-02-09 21:05:00,
2013-02-09 15:10:00,45.4,32.8,30.21,SSE,149,6.0,11.0,61,0.00,,,0.00,VWS V14.01,2013-02-09 21:10:00,
2013-02-09 15:15:00,45.2,32.2,30.21,SSE,155,7.0,11.0,60,0.00,,,0.00,VWS V14.01,2013-02-09 21:15:00,
2013-02-09 15:20:00,45.0,32.0,30.21,ESE,113,2.0,11.0,60,0.00,,,0.00,VWS V14.01,2013-02-09 21:20:00,
2013-02-09 15:25:00,45.0,32.4,30.21,SE,142,8.0,10.0,61,0.00,,,0.00,VWS V14.01,2013-02-09 21:25:00,
2013-02-09 15:30:00,44.6,31.6,30.20,South,172,1.0,11.0,60,0.00,,,0.00,VWS V14.01,2013-02-09 21:30:00,
2013-02-09 15:35:00,44.6,32.8,30.20,SSE,165,2.0,8.0,63,0.00,,CLR,0.00,VWS V14.01,2013-02-09 21:35:00,
2013-02-09 15:40:00,44.4,32.2,30.20,SE,142,2.0,11.0,62,0.00,,CLR,0.00,VWS V14.01,2013-02-09 21:40:00,
2013-02-09 15:45:00,44.3,32.5,30.20,SE,145,0.0,9.0,63,0.00,,CLR,0.00,VWS V14.01,2013-02-09 21:45:00,
2013-02-09 15:50:00,44.1,31.9,30.18,SE,139,0.0,9.0,62,0.00,,CLR,0.00,VWS V14.01,2013-02-09 21:50:00,
2013-02-09 15:55:00,43.8,32.0,30.18,ESE,123,4.0,9.0,63,0.00,,CLR,0.00,VWS V14.01,2013-02-09 21:55:00,
2013-02-09 16:00:00,43.7,32.0,30.18,SSE,159,7.0,9.0,63,0.00,,CLR,0.00,VWS V14.01,2013-02-09 22:00:00,
2013-02-09 16:05:00,43.6,31.9,30.18,SSE,155,5.0,11.0,63,0.00,,CLR,0.00,VWS V14.01,2013-02-09 22:05:00,
2013-02-09 16:10:00,43.5,32.2,30.18,ESE,115,1.0,14.0,64,0.00,,CLR,0.00,VWS V14.01,2013-02-09 22:10:00,
2013-02-09 16:15:00,43.5,32.5,30.18,ESE,120,5.0,8.0,65,0.00,,CLR,0.00,VWS V14.01,2013-02-09 22:15:00,
2013-02-09 16:20:00,43.6,32.6,30.18,SE,144,0.0,8.0,65,0.00,,CLR,0.00,VWS V14.01,2013-02-09 22:20:00,
2013-02-09 16:25:00,43.8,32.8,30.18,ESE,115,5.0,7.0,65,0.00,,CLR,0.00,VWS V14.01,2013-02-09 22:25:00,
2013-02-09 16:30:00,43.8,32.8,30.18,SE,124,2.0,7.0,65,0.00,,CLR,0.00,VWS V14.01,2013-02-09 22:30:00,
2013-02-09 16:35:00,43.7,32.7,30.18,SSE,151,4.0,13.0,65,0.00,,CLR,0.00,VWS V14.01,2013-02-09 22:35:00,
2013-02-09 16:40:00,43.6,32.6,30.18,SE,131,5.0,13.0,65,0.00,,CLR,0.00,VWS V14.01,2013-02-09 22:40:00,
2013-02-09 16:45:00,43.3,32.7,30.18,SSE,150,7.0,10.0,66,0.00,,CLR,0.00,VWS V14.01,2013-02-09 22:45:00,
2013-02-09 16:50:00,43.1,32.5,30.18,ESE,122,2.0,10.0,66,0.00,,CLR,0.00,VWS V14.01,2013-02-09 22:50:00,
2013-02-09 16:55:00,42.8,32.6,30.17,SSE,155,9.0,9.0,67,0.00,,CLR,0.00,VWS V14.01,2013-02-09 22:55:00,
2013-02-09 17:00:00,42.7,32.9,30.17,SE,134,13.0,13.0,68,0.00,,CLR,0.00,VWS V14.01,2013-02-09 23:00:00,
2013-02-09 17:05:00,42.6,32.8,30.17,SE,130,5.0,9.0,68,0.00,,CLR,0.00,VWS V14.01,2013-02-09 23:05:00,
2013-02-09 17:10:00,42.4,33.0,30.17,SSE,160,7.0,9.0,69,0.00,,CLR,0.00,VWS V14.01,2013-02-09 23:10:00,
2013-02-09 17:15:00,42.3,32.9,30.17,SSE,160,7.0,8.0,69,0.00,,CLR,0.00,VWS V14.01,2013-02-09 23:15:00,
2013-02-09 17:20:00,42.1,32.7,30.16,SE,131,2.0,8.0,69,0.00,,CLR,0.00,VWS V14.01,2013-02-09 23:20:00,
2013-02-09 17:25:00,42.0,32.9,30.16,SE,133,2.0,6.0,70,0.00,,CLR,0.00,VWS V14.01,2013-02-09 23:25:00,
2013-02-09 17:30:00,41.8,32.4,30.16,ESE,115,4.0,8.0,69,0.00,,CLR,0.00,VWS V14.01,2013-02-09 23:30:00,
2013-02-09 17:35:00,41.6,32.6,30.16,ESE,113,0.0,8.0,70,0.00,,CLR,0.00,VWS V14.01,2013-02-09 23:35:00,
2013-02-09 17:40:00,41.5,32.5,30.15,SE,132,4.0,8.0,70,0.00,,CLR,0.00,VWS V14.01,2013-02-09 23:40:00,
2013-02-09 17:45:00,41.3,32.3,30.15,ESE,112,0.0,4.0,70,0.00,,CLR,0.00,VWS V14.01,2013-02-09 23:45:00,
2013-02-09 17:50:00,41.1,32.4,30.15,ESE,111,2.0,7.0,71,0.00,,CLR,0.00,VWS V14.01,2013-02-09 23:50:00,
2013-02-09 17:55:00,41.0,32.7,30.15,ESE,107,2.0,8.0,72,0.00,,CLR,0.00,VWS V14.01,2013-02-09 23:55:00,
2013-02-09 18:00:00,40.9,32.6,30.15,ESE,119,2.0,8.0,72,0.00,,CLR,0.00,VWS V14.01,2013-02-10 00:00:00,
2013-02-09 18:05:00,40.8,32.5,30.15,SSE,154,1.0,8.0,72,0.00,,CLR,0.00,VWS V14.01,2013-02-10 00:05:00,
2013-02-09 18:10:00,40.7,32.7,30.14,SE,124,6.0,9.0,73,0.00,,CLR,0.00,VWS V14.01,2013-02-10 00:10:00,
2013-02-09 18:15:00,40.7,32.7,30.14,ESE,107,1.0,10.0,73,0.00,,CLR,0.00,VWS V14.01,2013-02-10 00:15:00,
2013-02-09 18:20:00,40.7,32.7,30.14,East,94,4.0,10.0,73,0.00,,CLR,0.00,VWS V14.01,2013-02-10 00:20:00,
2013-02-09 18:25:00,40.8,32.8,30.14,ESE,121,0.0,13.0,73,0.00,,CLR,0.00,VWS V14.01,2013-02-10 00:25:00,
2013-02-09 18:30:00,40.8,32.8,30.14,ESE,117,8.0,13.0,73,0.00,,CLR,0.00,VWS V14.01,2013-02-10 00:30:00,
2013-02-09 18:35:00,40.8,32.8,30.14,ESE,113,1.0,7.0,73,0.00,,CLR,0.00,VWS V14.01,2013-02-10 00:35:00,
2013-02-09 18:40:00,40.8,32.8,30.14,SE,142,0.0,7.0,73,0.00,,CLR,0.00,VWS V14.01,2013-02-10 00:40:00,
2013-02-09 18:45:00,40.8,32.8,30.14,SE,125,6.0,7.0,73,0.00,,CLR,0.00,VWS V14.01,2013-02-10 00:45:00,
2013-02-09 18:50:00,40.8,32.8,30.13,SE,126,1.0,9.0,73,0.00,,CLR,0.00,VWS V14.01,2013-02-10 00:50:00,
2013-02-09 18:55:00,40.8,32.8,30.13,ESE,117,1.0,10.0,73,0.00,,CLR,0.00,VWS V14.01,2013-02-10 00:55:00,
2013-02-09 19:00:00,40.8,32.8,30.14,East,80,3.0,10.0,73,0.00,,CLR,0.00,VWS V14.01,2013-02-10 01:00:00,
2013-02-09 19:05:00,40.8,32.8,30.14,SE,126,5.0,7.0,73,0.00,,CLR,0.00,VWS V14.01,2013-02-10 01:05:00,
2013-02-09 19:10:00,40.8,32.8,30.13,ESE,111,1.0,12.0,73,0.00,,CLR,0.00,VWS V14.01,2013-02-10 01:10:00,
2013-02-09 19:15:00,40.8,32.8,30.14,SE,140,4.0,12.0,73,0.00,,CLR,0.00,VWS V14.01,2013-02-10 01:15:00,
2013-02-09 19:21:00,40.8,33.2,30.14,SE,136,0.0,12.0,74,0.00,,CLR,0.00,VWS V14.01,2013-02-10 01:21:00,
2013-02-09 19:26:00,40.7,33.1,30.13,SE,127,2.0,8.0,74,0.00,,CLR,0.00,VWS V14.01,2013-02-10 01:26:00,
2013-02-09 19:31:00,40.7,33.1,30.13,SE,131,0.0,9.0,74,0.00,,CLR,0.00,VWS V14.01,2013-02-10 01:31:00,
2013-02-09 19:36:00,40.6,33.3,30.13,SE,127,5.0,10.0,75,0.00,,CLR,0.00,VWS V14.01,2013-02-10 01:36:00,
2013-02-09 19:41:00,40.6,33.3,30.14,ESE,118,0.0,12.0,75,0.00,,CLR,0.00,VWS V14.01,2013-02-10 01:41:00,
2013-02-09 19:46:00,40.6,33.3,30.14,ENE,76,2.0,10.0,75,0.00,,CLR,0.00,VWS V14.01,2013-02-10 01:46:00,
2013-02-09 19:51:00,40.6,33.3,30.14,SE,125,7.0,10.0,75,0.00,,CLR,0.00,VWS V14.01,2013-02-10 01:51:00,
2013-02-09 19:56:00,40.6,33.3,30.15,SSE,147,0.0,7.0,75,0.00,,CLR,0.00,VWS V14.01,2013-02-10 01:56:00,
2013-02-09 20:01:00,40.6,33.3,30.14,SE,132,4.0,7.0,75,0.00,,CLR,0.00,VWS V14.01,2013-02-10 02:01:00,
2013-02-09 20:06:00,40.6,33.3,30.14,SE,135,4.0,7.0,75,0.00,,CLR,0.00,VWS V14.01,2013-02-10 02:06:00,
2013-02-09 20:11:00,40.5,33.2,30.15,ESE,120,4.0,7.0,75,0.00,,CLR,0.00,VWS V14.01,2013-02-10 02:11:00,
2013-02-09 20:16:00,40.6,33.3,30.15,ESE,121,0.0,5.0,75,0.00,,CLR,0.00,VWS V14.01,2013-02-10 02:16:00,
2013-02-09 20:21:00,40.6,33.3,30.15,ESE,119,4.0,5.0,75,0.00,,CLR,0.00,VWS V14.01,2013-02-10 02:21:00,
2013-02-09 20:26:00,40.6,33.3,30.15,SE,139,0.0,7.0,75,0.00,,CLR,0.00,VWS V14.01,2013-02-10 02:26:00,
2013-02-09 20:31:00,40.6,33.3,30.14,ESE,117,0.0,7.0,75,0.00,,CLR,0.00,VWS V14.01,2013-02-10 02:31:00,
2013-02-09 20:36:00,40.6,33.3,30.14,SE,146,0.0,6.0,75,0.00,,CLR,0.00,VWS V14.01,2013-02-10 02:36:00,
2013-02-09 20:41:00,40.6,33.3,30.14,SE,136,1.0,6.0,75,0.00,,CLR,0.00,VWS V14.01,2013-02-10 02:41:00,
2013-02-09 20:46:00,40.6,33.3,30.14,SE,136,1.0,5.0,75,0.00,,CLR,0.00,VWS V14.01,2013-02-10 02:46:00,
2013-02-09 20:51:00,40.6,33.3,30.14,SE,140,0.0,5.0,75,0.00,,CLR,0.00,VWS V14.01,2013-02-10 02:51:00,
2013-02-09 20:56:00,40.5,33.2,30.14,SE,132,0.0,7.0,75,0.00,,CLR,0.00,VWS V14.01,2013-02-10 02:56:00,
2013-02-09 21:01:00,40.6,33.3,30.14,SE,138,0.0,7.0,75,0.00,,CLR,0.00,VWS V14.01,2013-02-10 03:01:00,
2013-02-09 21:06:00,40.5,33.2,30.13,SE,138,0.0,2.0,75,0.00,,CLR,0.00,VWS V14.01,2013-02-10 03:06:00,
2013-02-09 21:11:00,40.6,33.3,30.14,SE,138,0.0,6.0,75,0.00,,CLR,0.00,VWS V14.01,2013-02-10 03:11:00,
2013-02-09 21:16:00,40.6,33.3,30.13,SE,138,0.0,1.0,75,0.00,,CLR,0.00,VWS V14.01,2013-02-10 03:16:00,
2013-02-09 21:21:00,40.7,33.4,30.13,SE,138,0.0,2.0,75,0.00,,CLR,0.00,VWS V14.01,2013-02-10 03:21:00,
2013-02-09 21:26:00,40.7,33.4,30.13,SE,138,2.0,4.0,75,0.00,,CLR,0.00,VWS V14.01,2013-02-10 03:26:00,
2013-02-09 21:31:00,40.8,33.5,30.12,SSE,167,0.0,5.0,75,0.00,,CLR,0.00,VWS V14.01,2013-02-10 03:31:00,
2013-02-09 21:36:00,40.8,33.5,30.12,SE,143,4.0,4.0,75,0.00,,CLR,0.00,VWS V14.01,2013-02-10 03:36:00,
2013-02-09 21:41:00,40.9,33.6,30.11,SE,137,2.0,5.0,75,0.00,,CLR,0.00,VWS V14.01,2013-02-10 03:41:00,
2013-02-09 21:46:00,41.0,33.4,30.11,SE,129,1.0,10.0,74,0.00,,CLR,0.00,VWS V14.01,2013-02-10 03:46:00,
2013-02-09 21:51:00,41.1,33.5,30.11,SE,138,5.0,10.0,74,0.00,,CLR,0.00,VWS V14.01,2013-02-10 03:51:00,
2013-02-09 21:56:00,41.2,33.2,30.10,SSE,158,5.0,8.0,73,0.00,,SCT120,0.00,VWS V14.01,2013-02-10 03:56:00,
2013-02-09 22:01:00,41.3,33.3,30.10,ESE,115,0.0,11.0,73,0.00,,SCT120,0.00,VWS V14.01,2013-02-10 04:01:00,
2013-02-09 22:06:00,41.3,33.3,30.10,ESE,108,5.0,8.0,73,0.00,,SCT120,0.00,VWS V14.01,2013-02-10 04:06:00,
2013-02-09 22:11:00,41.3,33.3,30.10,ESE,115,4.0,8.0,73,0.00,,SCT120,0.00,VWS V14.01,2013-02-10 04:11:00,
2013-02-09 22:16:00,41.3,33.3,30.09,SSE,159,1.0,8.0,73,0.00,,SCT120,0.00,VWS V14.01,2013-02-10 04:16:00,
2013-02-09 22:21:00,41.4,33.4,30.09,SE,144,7.0,11.0,73,0.00,,SCT120,0.00,VWS V14.01,2013-02-10 04:21:00,
2013-02-09 22:26:00,41.4,33.4,30.09,SE,136,5.0,8.0,73,0.00,,SCT120,0.00,VWS V14.01,2013-02-10 04:26:00,
2013-02-09 22:31:00,41.4,33.4,30.09,SSE,148,4.0,8.0,73,0.00,,SCT120,0.00,VWS V14.01,2013-02-10 04:31:00,
2013-02-09 22:36:00,41.4,33.4,30.08,SE,138,0.0,9.0,73,0.00,,OVC100,0.00,VWS V14.01,2013-02-10 04:36:00,
2013-02-09 22:41:00,41.4,33.4,30.08,East,86,2.0,10.0,73,0.00,,OVC100,0.00,VWS V14.01,2013-02-10 04:41:00,
2013-02-09 22:46:00,41.4,33.4,30.08,ESE,117,1.0,11.0,73,0.00,,OVC100,0.00,VWS V14.01,2013-02-10 04:46:00,
2013-02-09 22:51:00,41.4,33.4,30.08,South,185,2.0,11.0,73,0.00,,OVC100,0.00,VWS V14.01,2013-02-10 04:51:00,
2013-02-09 22:56:00,41.5,33.5,30.08,SE,146,0.0,11.0,73,0.00,,OVC090,0.00,VWS V14.01,2013-02-10 04:56:00,
2013-02-09 23:01:00,41.5,33.2,30.07,SE,142,0.0,11.0,72,0.00,,OVC090,0.00,VWS V14.01,2013-02-10 05:01:00,
2013-02-09 23:06:00,41.5,33.2,30.07,ESE,109,0.0,6.0,72,0.00,,OVC090,0.00,VWS V14.01,2013-02-10 05:06:00,
2013-02-09 23:11:00,41.6,33.3,30.07,ESE,117,8.0,9.0,72,0.00,,OVC090,0.00,VWS V14.01,2013-02-10 05:11:00,
2013-02-09 23:21:00,41.7,33.7,30.06,SE,139,4.0,9.0,73,0.00,,OVC090,0.00,VWS V14.01,2013-02-10 05:21:00,
2013-02-09 23:31:00,41.5,33.8,30.06,SSE,148,4.0,9.0,74,0.00,,OVC090,0.00,VWS V14.01,2013-02-10 05:31:00,
2013-02-09 23:36:00,41.4,34.1,30.06,SSE,147,5.0,7.0,75,0.00,,OVC080,0.00,VWS V14.01,2013-02-10 05:36:00,
2013-02-09 23:41:00,41.2,34.2,30.08,South,182,0.0,8.0,76,0.01,,OVC080,0.01,VWS V14.01,2013-02-10 05:41:00,
2013-02-09 23:46:00,41.1,34.5,30.08,SE,142,0.0,6.0,77,0.01,,OVC080,0.01,VWS V14.01,2013-02-10 05:46:00,
2013-02-09 23:51:00,40.9,34.6,30.08,SSE,150,0.0,6.0,78,0.01,,OVC080,0.01,VWS V14.01,2013-02-10 05:51:00,
2013-02-09 23:56:00,40.7,34.7,30.09,South,169,1.0,7.0,79,0.02,,-RA,0.02,VWS V14.01,2013-02-10 05:56:00,